QPF
0.00 0.00 0.00 0.00 0.00 0.00 0.00 0.00 0.00 0.00 0.00 0.00 0.00 0.00 0.00 0.00 0.00 0.00 0.00 0.00 0.00 0.00 0.00 0.01 0.01 0.01 0.01 0.01 0.01 0.02 0.02 0.02 0.02 0.02 0.02 0.02 0.02 0.02
0.00 0.00 0.00 0.00 0.00 0.00 0.00 0.00 0.00 0.00 0.00 0.00 0.00 0.00 0.00 0.00 0.00 0.00 0.00 0.00 0.00 0.00 0.00 0.01 0.01 0.01 0.02 0.02 0.02 0.02 0.02 0.02 0.03 0.03 0.03 0.04 0.04 0.04
0.00 0.00 0.00 0.00 0.00 0.00 0.00 0.00 0.00 0.00 0.00 0.00 0.00 0.00 0.00 0.00 0.00 0.00 0.00 0.00 0.00 0.00 0.00 0.01 0.01 0.01 0.02 0.02 0.02 0.03 0.03 0.03 0.03 0.04 0.04 0.05 0.05 0.05
0.00 0.00 0.00 0.00 0.00 0.00 0.00 0.00 0.00 0.00 0.00 0.00 0.00 0.00 0.00 0.00 0.00 0.00 0.00 0.00 0.00 0.00 0.00 0.00 0.01 0.01 0.02 0.02 0.02 0.03 0.03 0.03 0.03 0.04 0.04 0.04 0.05 0.05
0.00 0.00 0.00 0.00 0.00 0.00 0.00 0.00 0.00 0.00 0.00 0.00 0.00 0.00 0.00 0.00 0.00 0.00 0.00 0.00 0.00 0.00 0.00 0.00 0.00 0.00 0.01 0.02 0.02 0.03 0.03 0.03 0.03 0.03 0.03 0.03 0.03 0.04
0.00 0.00 0.00 0.00 0.00 0.00 0.00 0.00 0.00 0.00 0.00 0.01 0.01 0.01 0.01 0.00 0.01 0.01 0.01 0.00 0.00 0.00 0.00 0.00 0.00 0.00 0.01 0.01 0.01 0.01 0.01 0.01 0.02 0.02 0.02 0.03 0.03 0.03
0.00 0.00 0.00 0.00 0.00 0.00 0.00 0.00 0.00 0.01 0.01 0.01 0.01 0.01 0.01 0.01 0.01 0.01 0.02 0.01 0.01 0.00 0.00 0.00 0.00 0.00 0.00 0.00 0.00 0.00 0.00 0.01 0.01 0.02 0.02 0.03 0.03 0.03
0.00 0.00 0.00 0.00 0.00 0.00 0.00 0.00 0.00 0.01 0.01 0.02 0.02 0.02 0.01 0.01 0.02 0.02 0.02 0.02 0.02 0.01 0.01 0.01 0.00 0.00 0.00 0.00 0.00 0.00 0.01 0.01 0.02 0.02 0.03 0.03 0.03 0.03
0.00 0.00 0.00 0.00 0.00 0.00 0.00 0.00 0.00 0.00 0.01 0.02 0.02 0.02 0.01 0.01 0.02 0.02 0.03 0.04 0.03 0.02 0.02 0.02 0.01 0.01 0.00 0.00 0.00 0.01 0.01 0.02 0.02 0.02 0.03 0.03 0.03 0.03
0.00 0.00 0.00 0.00 0.00 0.00 0.00 0.00 0.00 0.00 0.00 0.01 0.01 0.01 0.01 0.02 0.03 0.05 0.07 0.08 0.06 0.03 0.03 0.04 0.01 0.01 0.00 0.00 0.00 0.00 0.01 0.01 0.02 0.02 0.03 0.03 0.03 0.03
0.00 0.00 0.00 0.00 0.00 0.00 0.01 0.01 0.01 0.01 0.01 0.01 0.02 0.03 0.04 0.04 0.05 0.07 0.08 0.08 0.06 0.02 0.01 0.02 0.01 0.01 0.01 0.01 0.00 0.00 0.01 0.01 0.02 0.02 0.02 0.03 0.03 0.03
0.00 0.00 0.00 0.00 0.00 0.01 0.01 0.02 0.02 0.01 0.02 0.02 0.02 0.02 0.02 0.02 0.02 0.03 0.04 0.05 0.04 0.03 0.01 0.02 0.02 0.02 0.03 0.01 0.00 0.00 0.00 0.00 0.00 0.01 0.01 0.02 0.02 0.02
0.00 0.00 0.00 0.00 0.01 0.01 0.02 0.03 0.03 0.03 0.03 0.04 0.04 0.03 0.01 0.01 0.01 0.01 0.01 0.03 0.05 0.04 0.02 0.03 0.04 0.03 0.04 0.02 0.01 0.00 0.00 0.01 0.00 0.00 0.00 0.00 0.01 0.01
0.00 0.00 0.00 0.01 0.01 0.02 0.03 0.03 0.03 0.03 0.03 0.02 0.01 0.01 0.01 0.01 0.01 0.01 0.01 0.01 0.02 0.03 0.01 0.03 0.06 0.04 0.04 0.03 0.02 0.01 0.01 0.01 0.01 0.00 0.00 0.00 0.00 0.01
0.00 0.01 0.01 0.01 0.02 0.02 0.01 0.01 0.02 0.02 0.01 0.01 0.01 0.01 0.01 0.01 0.01 0.01 0.01 0.01 0.01 0.01 0.01 0.01 0.03 0.04 0.05 0.05 0.03 0.01 0.01 0.01 0.00 0.00 0.00 0.00 0.01 0.01
0.01 0.01 0.01 0.01 0.01 0.01 0.01 0.01 0.01 0.01 0.01 0.01 0.01 0.01 0.01 0.01 0.01 0.01 0.01 0.01 0.01 0.01 0.01 0.01 0.02 0.04 0.05 0.04 0.03 0.02 0.02 0.01 0.01 0.01 0.00 0.00 0.00 0.00
0.02 0.03 0.02 0.02 0.01 0.01 0.01 0.00 0.00 0.00 0.01 0.01 0.01 0.01 0.01 0.01 0.01 0.01 0.01 0.02 0.02 0.01 0.01 0.01 0.01 0.02 0.03 0.03 0.03 0.02 0.02 0.01 0.01 0.01 0.01 0.01 0.00 0.00
0.03 0.03 0.03 0.02 0.02 0.01 0.01 0.01 0.01 0.00 0.01 0.01 0.01 0.01 0.01 0.01 0.01 0.01 0.01 0.02 0.02 0.01 0.01 0.01 0.01 0.02 0.02 0.02 0.02 0.02 0.02 0.01 0.01 0.01 0.01 0.01 0.00 0.00
0.02 0.02 0.01 0.01 0.01 0.01 0.01 0.01 0.01 0.01 0.01 0.01 0.01 0.01 0.01 0.02 0.02 0.01 0.01 0.02 0.02 0.01 0.01 0.01 0.02 0.03 0.02 0.02 0.01 0.01 0.01 0.01 0.01 0.01 0.01 0.00 0.00 0.00
0.01 0.01 0.01 0.01 0.01 0.01 0.01 0.01 0.01 0.01 0.01 0.01 0.01 0.01 0.01 0.02 0.02 0.01 0.02 0.02 0.02 0.02 0.01 0.01 0.02 0.02 0.02 0.02 0.01 0.01 0.01 0.01 0.01 0.01 0.00 0.00 0.00 0.00
0.01 0.01 0.01 0.01 0.01 0.01 0.01 0.01 0.01 0.01 0.01 0.01 0.01 0.01 0.01 0.02 0.02 0.01 0.02 0.02 0.02 0.02 0.02 0.01 0.01 0.01 0.02 0.02 0.01 0.01 0.01 0.00 0.00 0.00 0.00 0.01 0.01 0.00
0.01 0.01 0.01 0.01 0.01 0.01 0.01 0.01 0.01 0.01 0.01 0.01 0.01 0.01 0.01 0.02 0.02 0.02 0.02 0.02 0.02 0.02 0.01 0.01 0.01 0.02 0.02 0.02 0.01 0.01 0.01 0.00 0.00 0.00 0.00 0.00 0.00 0.00
0.01 0.01 0.01 0.01 0.01 0.01 0.01 0.01 0.02 0.01 0.01 0.01 0.01 0.01 0.01 0.02 0.02 0.02 0.02 0.02 0.02 0.01 0.01 0.01 0.01 0.01 0.01 0.01 0.01 0.01 0.01 0.00 0.01 0.01 0.01 0.00 0.00 0.00
MSLP
1023.52 1023.57 1023.56 1023.49 1023.35 1023.16 1022.92 1022.62 1022.29 1021.93 1021.54 1021.14 1020.73 1020.32 1019.92 1019.53 1019.15 1018.78 1018.41 1018.04 1017.67 1017.27 1016.86 1016.42 1015.96 1015.48 1014.99 1014.51 1014.06 1013.65 1013.27 1012.94 1012.64 1012.36 1012.09 1011.80 1011.49 1011.16
1023.37 1023.42 1023.43 1023.38 1023.27 1023.11 1022.90 1022.63 1022.31 1021.94 1021.54 1021.10 1020.64 1020.17 1019.69 1019.22 1018.76 1018.32 1017.90 1017.49 1017.08 1016.67 1016.26 1015.82 1015.38 1014.91 1014.45 1014.00 1013.57 1013.18 1012.83 1012.51 1012.23 1011.96 1011.69 1011.39 1011.06 1010.70
1023.08 1023.13 1023.14 1023.11 1023.04 1022.91 1022.74 1022.50 1022.21 1021.86 1021.46 1021.00 1020.51 1019.98 1019.45 1018.91 1018.39 1017.88 1017.40 1016.93 1016.49 1016.05 1015.61 1015.16 1014.71 1014.26 1013.81 1013.38 1012.99 1012.63 1012.31 1012.03 1011.78 1011.53 1011.28 1010.98 1010.65 1010.27
1022.69 1022.72 1022.73 1022.72 1022.67 1022.58 1022.44 1022.25 1021.99 1021.66 1021.26 1020.81 1020.30 1019.75 1019.17 1018.59 1018.02 1017.46 1016.92 1016.41 1015.91 1015.43 1014.95 1014.48 1014.01 1013.55 1013.11 1012.70 1012.33 1012.01 1011.74 1011.51 1011.30 1011.09 1010.86 1010.58 1010.26 1009.87
1022.22 1022.23 1022.23 1022.22 1022.19 1022.13 1022.02 1021.86 1021.63 1021.33 1020.95 1020.50 1019.99 1019.44 1018.85 1018.25 1017.65 1017.06 1016.48 1015.92 1015.38 1014.85 1014.33 1013.81 1013.31 1012.83 1012.39 1011.99 1011.65 1011.36 1011.14 1010.95 1010.79 1010.63 1010.43 1010.18 1009.87 1009.49
1021.70 1021.68 1021.67 1021.65 1021.63 1021.58 1021.49 1021.35 1021.14 1020.86 1020.50 1020.07 1019.58 1019.04 1018.46 1017.86 1017.26 1016.66 1016.07 1015.48 1014.90 1014.32 1013.75 1013.19 1012.65 1012.14 1011.68 1011.28 1010.96 1010.70 1010.52 1010.38 1010.26 1010.14 1009.98 1009.77 1009.48 1009.11
1021.14 1021.09 1021.06 1021.03 1021.00 1020.95 1020.87 1020.73 1020.53 1020.26 1019.92 1019.52 1019.05 1018.54 1017.99 1017.43 1016.85 1016.26 1015.67 1015.07 1014.46 1013.85 1013.24 1012.63 1012.05 1011.50 1011.02 1010.61 1010.29 1010.06 1009.90 1009.80 1009.72 1009.63 1009.51 1009.33 1009.06 1008.72
1020.55 1020.48 1020.42 1020.38 1020.33 1020.27 1020.17 1020.03 1019.83 1019.57 1019.25 1018.86 1018.43 1017.96 1017.46 1016.94 1016.40 1015.85 1015.27 1014.68 1014.06 1013.42 1012.77 1012.13 1011.50 1010.93 1010.42 1010.00 1009.68 1009.45 1009.31 1009.22 1009.17 1009.11 1009.02 1008.87 1008.64 1008.33
1019.94 1019.85 1019.76 1019.69 1019.62 1019.54 1019.42 1019.27 1019.06 1018.80 1018.49 1018.13 1017.74 1017.32 1016.87 1016.41 1015.92 1015.41 1014.86 1014.28 1013.67 1013.02 1012.34 1011.67 1011.02 1010.41 1009.89 1009.45 1009.12 1008.90 1008.76 1008.68 1008.64 1008.60 1008.53 1008.40 1008.20 1007.93
1019.30 1019.18 1019.08 1018.98 1018.88 1018.78 1018.64 1018.47 1018.25 1018.00 1017.70 1017.37 1017.02 1016.64 1016.25 1015.84 1015.41 1014.94 1014.43 1013.87 1013.26 1012.61 1011.93 1011.25 1010.58 1009.97 1009.43 1008.98 1008.65 1008.42 1008.28 1008.21 1008.17 1008.13 1008.07 1007.96 1007.79 1007.56
1018.62 1018.49 1018.36 1018.24 1018.13 1017.99 1017.84 1017.66 1017.44 1017.19 1016.91 1016.61 1016.29 1015.96 1015.62 1015.26 1014.87 1014.44 1013.97 1013.43 1012.84 1012.20 1011.52 1010.84 1010.18 1009.58 1009.04 1008.61 1008.28 1008.05 1007.91 1007.83 1007.78 1007.74 1007.68 1007.58 1007.44 1007.25
1017.92 1017.77 1017.63 1017.49 1017.35 1017.20 1017.04 1016.85 1016.63 1016.40 1016.14 1015.87 1015.59 1015.30 1015.00 1014.68 1014.32 1013.93 1013.47 1012.96 1012.38 1011.76 1011.11 1010.46 1009.83 1009.25 1008.74 1008.33 1008.02 1007.80 1007.66 1007.58 1007.52 1007.47 1007.41 1007.31 1007.18 1007.02
1017.19 1017.03 1016.87 1016.72 1016.57 1016.41 1016.24 1016.05 1015.85 1015.64 1015.41 1015.17 1014.92 1014.67 1014.40 1014.10 1013.77 1013.39 1012.95 1012.46 1011.90 1011.31 1010.70 1010.09 1009.51 1008.98 1008.53 1008.17 1007.89 1007.69 1007.56 1007.47 1007.40 1007.34 1007.26 1007.17 1007.05 1006.90
1016.46 1016.28 1016.11 1015.94 1015.78 1015.62 1015.45 1015.28 1015.10 1014.91 1014.71 1014.51 1014.29 1014.06 1013.81 1013.53 1013.20 1012.83 1012.41 1011.93 1011.40 1010.85 1010.29 1009.74 1009.24 1008.78 1008.41 1008.10 1007.87 1007.71 1007.59 1007.50 1007.42 1007.34 1007.25 1007.14 1007.02 1006.89
1015.73 1015.53 1015.35 1015.17 1015.00 1014.84 1014.68 1014.53 1014.37 1014.22 1014.05 1013.88 1013.69 1013.48 1013.24 1012.96 1012.64 1012.27 1011.85 1011.39 1010.90 1010.39 1009.89 1009.43 1009.01 1008.65 1008.35 1008.13 1007.96 1007.83 1007.73 1007.64 1007.55 1007.45 1007.34 1007.22 1007.09 1006.95
1014.99 1014.79 1014.59 1014.40 1014.23 1014.07 1013.93 1013.80 1013.67 1013.55 1013.42 1013.27 1013.11 1012.91 1012.68 1012.40 1012.07 1011.70 1011.29 1010.84 1010.39 1009.94 1009.51 1009.14 1008.81 1008.55 1008.36 1008.22 1008.11 1008.02 1007.95 1007.86 1007.75 1007.62 1007.49 1007.34 1007.20 1007.06
1014.25 1014.04 1013.83 1013.64 1013.46 1013.32 1013.19 1013.08 1012.99 1012.90 1012.81 1012.69 1012.55 1012.37 1012.14 1011.85 1011.52 1011.15 1010.74 1010.32 1009.90 1009.51 1009.16 1008.88 1008.66 1008.50 1008.39 1008.33 1008.29 1008.24 1008.18 1008.09 1007.96 1007.81 1007.65 1007.47 1007.31 1007.16
1013.49 1013.28 1013.07 1012.88 1012.71 1012.58 1012.47 1012.39 1012.33 1012.28 1012.21 1012.13 1012.01 1011.83 1011.61 1011.32 1010.99 1010.62 1010.22 1009.82 1009.45 1009.12 1008.85 1008.65 1008.52 1008.46 1008.44 1008.45 1008.46 1008.45 1008.40 1008.30 1008.15 1007.97 1007.77 1007.57 1007.39 1007.22
1012.71 1012.50 1012.30 1012.11 1011.96 1011.85 1011.77 1011.72 1011.69 1011.67 1011.64 1011.58 1011.48 1011.32 1011.10 1010.82 1010.49 1010.12 1009.74 1009.37 1009.04 1008.76 1008.56 1008.44 1008.40 1008.42 1008.48 1008.55 1008.60 1008.61 1008.57 1008.46 1008.29 1008.08 1007.84 1007.61 1007.41 1007.24
1011.88 1011.69 1011.50 1011.34 1011.21 1011.12 1011.07 1011.06 1011.07 1011.08 1011.08 1011.05 1010.97 1010.83 1010.62 1010.35 1010.02 1009.67 1009.31 1008.97 1008.67 1008.45 1008.32 1008.26 1008.29 1008.38 1008.50 1008.61 1008.70 1008.73 1008.69 1008.56 1008.37 1008.13 1007.87 1007.62 1007.40 1007.22
1011.03 1010.85 1010.70 1010.56 1010.46 1010.40 1010.39 1010.41 1010.45 1010.50 1010.54 1010.53 1010.48 1010.35 1010.16 1009.90 1009.59 1009.26 1008.92 1008.61 1008.36 1008.18 1008.10 1008.10 1008.19 1008.33 1008.49 1008.65 1008.76 1008.80 1008.76 1008.63 1008.42 1008.17 1007.88 1007.61 1007.37 1007.18
1010.15 1010.00 1009.87 1009.77 1009.71 1009.69 1009.71 1009.77 1009.85 1009.93 1009.99 1010.02 1009.98 1009.88 1009.71 1009.47 1009.18 1008.87 1008.56 1008.29 1008.07 1007.94 1007.90 1007.95 1008.08 1008.26 1008.46 1008.64 1008.78 1008.83 1008.80 1008.68 1008.47 1008.20 1007.91 1007.62 1007.37 1007.18
1009.27 1009.15 1009.05 1008.99 1008.96 1008.98 1009.03 1009.13 1009.23 1009.35 1009.44 1009.49 1009.48 1009.40 1009.25 1009.04 1008.78 1008.50 1008.22 1007.98 1007.80 1007.71 1007.70 1007.79 1007.95 1008.16 1008.39 1008.60 1008.76 1008.84 1008.82 1008.71 1008.52 1008.26 1007.97 1007.68 1007.43 1007.23
Thickness
5498 5493 5489 5486 5482 5478 5475 5472 5470 5475 5484 5484 5479 5475 5470 5467 5465 5464 5465 5465 5462 5461 5460 5459 5459 5458 5458 5459 5460 5461 5462 5463 5464 5466 5468 5470 5474 5477
5486 5482 5479 5475 5472 5467 5464 5461 5458 5457 5463 5469 5464 5461 5458 5455 5452 5451 5451 5450 5449 5447 5446 5444 5443 5442 5442 5442 5442 5443 5444 5445 5447 5449 5450 5453 5456 5458
5477 5473 5469 5465 5461 5458 5454 5451 5448 5446 5448 5454 5450 5447 5443 5441 5439 5436 5435 5434 5434 5432 5429 5427 5425 5424 5424 5424 5424 5424 5425 5426 5427 5429 5431 5433 5436 5439
5469 5464 5460 5456 5452 5448 5445 5442 5439 5436 5435 5438 5438 5433 5429 5424 5421 5419 5417 5416 5415 5414 5410 5407 5405 5404 5404 5403 5403 5403 5404 5405 5406 5408 5410 5412 5415 5417
5459 5455 5451 5446 5443 5439 5435 5432 5428 5424 5421 5420 5421 5416 5412 5407 5405 5403 5400 5398 5396 5393 5390 5387 5385 5383 5382 5382 5381 5382 5382 5384 5385 5386 5388 5390 5393 5396
5450 5445 5441 5437 5433 5429 5425 5420 5415 5411 5406 5403 5403 5400 5396 5391 5385 5383 5383 5380 5376 5372 5369 5367 5365 5364 5363 5362 5362 5362 5362 5363 5365 5367 5368 5371 5373 5376
5441 5437 5432 5427 5422 5416 5412 5408 5402 5397 5392 5388 5386 5383 5379 5373 5367 5363 5360 5359 5356 5349 5349 5349 5346 5346 5345 5344 5344 5344 5345 5346 5347 5350 5352 5355 5357 5360
5434 5429 5425 5419 5413 5406 5401 5395 5389 5382 5377 5371 5368 5364 5360 5353 5347 5342 5337 5335 5337 5332 5327 5329 5324 5326 5326 5328 5329 5329 5330 5332 5334 5337 5340 5343 5346 5348
5426 5421 5416 5410 5402 5396 5391 5384 5377 5368 5360 5353 5349 5345 5340 5335 5327 5323 5317 5314 5315 5313 5307 5311 5310 5312 5313 5316 5317 5318 5320 5322 5325 5328 5331 5334 5337 5340
5416 5411 5405 5399 5391 5383 5377 5371 5365 5357 5348 5340 5333 5328 5321 5314 5306 5301 5299 5298 5299 5297 5292 5296 5301 5302 5305 5307 5309 5310 5312 5314 5317 5320 5324 5327 5330 5334
5407 5400 5393 5386 5379 5369 5362 5358 5353 5346 5336 5328 5320 5313 5306 5299 5292 5287 5285 5283 5288 5290 5286 5285 5290 5292 5295 5299 5301 5302 5304 5307 5310 5314 5317 5321 5324 5328
5397 5390 5381 5373 5365 5355 5346 5341 5336 5331 5323 5316 5308 5301 5294 5287 5281 5275 5272 5271 5274 5277 5279 5276 5279 5279 5285 5292 5293 5295 5297 5300 5303 5307 5311 5314 5318 5321
5384 5377 5370 5360 5351 5342 5333 5326 5320 5314 5309 5302 5296 5289 5283 5277 5273 5268 5263 5260 5262 5266 5267 5265 5268 5270 5273 5280 5284 5287 5290 5294 5299 5302 5305 5308 5311 5314
5369 5364 5356 5347 5338 5329 5321 5314 5306 5299 5294 5288 5283 5278 5274 5270 5266 5261 5258 5255 5255 5256 5258 5257 5260 5263 5266 5272 5278 5282 5285 5289 5293 5297 5300 5303 5306 5309
5354 5348 5340 5332 5324 5317 5310 5301 5293 5286 5281 5276 5272 5269 5265 5261 5258 5255 5254 5252 5252 5253 5254 5254 5256 5259 5261 5266 5272 5276 5280 5284 5288 5292 5295 5298 5301 5304
5339 5334 5326 5319 5311 5303 5296 5289 5281 5274 5269 5265 5262 5260 5257 5254 5252 5250 5250 5250 5251 5254 5254 5254 5254 5256 5259 5263 5267 5272 5275 5279 5283 5286 5289 5292 5296 5299
5324 5319 5314 5307 5301 5294 5286 5278 5271 5265 5260 5256 5253 5252 5250 5248 5247 5246 5245 5246 5247 5251 5252 5253 5253 5254 5257 5260 5264 5269 5273 5276 5279 5282 5284 5288 5292 5295
5308 5305 5300 5294 5287 5281 5274 5268 5262 5257 5253 5249 5247 5244 5242 5242 5242 5242 5242 5243 5245 5247 5249 5250 5251 5253 5257 5260 5262 5266 5270 5273 5275 5277 5280 5283 5288 5291
5295 5291 5286 5281 5275 5269 5263 5258 5254 5249 5245 5242 5240 5238 5237 5237 5237 5238 5239 5240 5242 5244 5246 5247 5248 5250 5255 5260 5263 5262 5265 5268 5271 5274 5276 5279 5282 5286
5283 5278 5274 5269 5263 5258 5254 5250 5246 5242 5239 5236 5234 5233 5232 5233 5234 5235 5236 5237 5239 5241 5243 5245 5246 5248 5250 5254 5256 5258 5259 5263 5266 5269 5272 5274 5277 5279
5271 5266 5261 5257 5252 5248 5244 5241 5238 5235 5232 5231 5230 5229 5229 5229 5231 5232 5233 5234 5235 5238 5241 5243 5244 5244 5244 5246 5250 5255 5257 5258 5260 5263 5266 5269 5273 5276
5259 5254 5250 5246 5242 5239 5236 5233 5231 5229 5227 5226 5226 5226 5226 5227 5228 5228 5230 5232 5234 5236 5238 5240 5240 5241 5243 5246 5250 5253 5254 5255 5257 5258 5260 5263 5267 5271
5248 5244 5240 5237 5234 5231 5229 5227 5225 5224 5223 5223 5223 5223 5223 5224 5225 5226 5228 5229 5231 5233 5235 5237 5238 5239 5241 5243 5246 5249 5250 5252 5255 5257 5259 5261 5262 5264